User: anonymous
Location: Caltech
(34.1382°N, 118.1253°W)
Time: 23:41:51
(UTC-07:00)
Language:

ASTRO E2 - Orbit

View from above orbital plane
View from above orbital plane
View from above satellite
View from above satellite

Ground track
Ground track

The orbit data is extracted from the following two-line orbital elements,

1 28773U 05025A   14106.51174105  .00005822  00000-0  36086-3 0  2542
2 28773 031.3830 212.1188 0005273 295.0204 156.4108 15.08346643481872
Epoch (UTC): 16 April 2014 12:16:54
Eccentricity: 0.0005273
inclination: 31.3830°
perigee height: 537 km
apogee height: 545 km
right ascension of ascending node: 212.1188°
argument of perigee: 295.0204°
revolutions per day: 15.08346643
mean anomaly at epoch: 156.4108°
orbit number at epoch: 48187

The dashed part of the orbit path shows where the satellite is in the earth's shadow,  

DLR